Year,Month,Day,Hour,Minute,Value (Times are PST for temperature in C)
2018,08,13,00,00,12.60
2018,08,13,00,01,12.50
2018,08,13,00,02,12.50
2018,08,13,00,03,12.50
2018,08,13,00,04,12.50
2018,08,13,00,05,12.50
2018,08,13,00,06,12.50
2018,08,13,00,07,12.40
2018,08,13,00,08,12.40
2018,08,13,00,09,12.40
2018,08,13,00,10,12.40
2018,08,13,00,11,12.40
2018,08,13,00,12,12.40
2018,08,13,00,13,12.40
2018,08,13,00,14,12.40
2018,08,13,00,15,12.40
2018,08,13,00,16,12.30
2018,08,13,00,17,12.30
2018,08,13,00,18,12.30
2018,08,13,00,19,12.30
2018,08,13,00,20,12.30
2018,08,13,00,21,12.30
2018,08,13,00,22,12.30
2018,08,13,00,23,12.30
2018,08,13,00,24,12.30
2018,08,13,00,25,12.30
2018,08,13,00,26,12.30
2018,08,13,00,27,12.30
2018,08,13,00,28,12.30
2018,08,13,00,29,12.30
2018,08,13,00,30,12.30
2018,08,13,00,31,12.30
2018,08,13,00,32,12.20
2018,08,13,00,33,12.20
2018,08,13,00,34,12.20
2018,08,13,00,35,12.20
2018,08,13,00,36,12.20
2018,08,13,00,37,12.20
2018,08,13,00,38,12.20
2018,08,13,00,39,12.20
2018,08,13,00,40,12.20
2018,08,13,00,41,12.20
2018,08,13,00,42,12.20
2018,08,13,00,43,12.20
2018,08,13,00,44,12.20
2018,08,13,00,45,12.20
2018,08,13,00,46,12.20
2018,08,13,00,47,12.20
2018,08,13,00,48,12.20
2018,08,13,00,49,12.10
2018,08,13,00,50,12.10
2018,08,13,00,51,12.10
2018,08,13,00,52,12.10
2018,08,13,00,53,12.10
2018,08,13,00,54,12.10
2018,08,13,00,55,12.10
2018,08,13,00,56,12.10
2018,08,13,00,57,12.10
2018,08,13,00,58,12.10
2018,08,13,00,59,12.00
2018,08,13,01,00,12.00
2018,08,13,01,01,12.00
2018,08,13,01,02,12.00
2018,08,13,01,03,12.00
2018,08,13,01,04,12.00
2018,08,13,01,05,12.00
2018,08,13,01,06,12.00
2018,08,13,01,07,11.90
2018,08,13,01,08,11.90
2018,08,13,01,09,11.90
2018,08,13,01,10,11.90
2018,08,13,01,11,11.90
2018,08,13,01,12,11.90
2018,08,13,01,13,11.90
2018,08,13,01,14,11.90
2018,08,13,01,15,11.90
2018,08,13,01,16,11.80
2018,08,13,01,17,11.80
2018,08,13,01,18,11.80
2018,08,13,01,19,11.80
2018,08,13,01,20,11.80
2018,08,13,01,21,11.80
2018,08,13,01,22,11.80
2018,08,13,01,23,11.80
2018,08,13,01,24,11.80
2018,08,13,01,25,11.80
2018,08,13,01,26,11.80
2018,08,13,01,27,11.80
2018,08,13,01,28,11.80
2018,08,13,01,29,11.80
2018,08,13,01,30,11.80
2018,08,13,01,31,11.80
2018,08,13,01,32,11.80
2018,08,13,01,33,11.80
2018,08,13,01,34,11.80
2018,08,13,01,35,11.80
2018,08,13,01,36,11.80
2018,08,13,01,37,11.80
2018,08,13,01,38,11.80
2018,08,13,01,39,11.80
2018,08,13,01,40,11.80
2018,08,13,01,41,11.80
2018,08,13,01,42,11.80
2018,08,13,01,43,11.80
2018,08,13,01,44,11.80
2018,08,13,01,45,11.80
2018,08,13,01,46,11.80
2018,08,13,01,47,11.80
2018,08,13,01,48,11.80
2018,08,13,01,49,11.80
2018,08,13,01,50,11.80
2018,08,13,01,51,11.80
2018,08,13,01,52,11.80
2018,08,13,01,53,11.80
2018,08,13,01,54,11.80
2018,08,13,01,55,11.80
2018,08,13,01,56,11.80
2018,08,13,01,57,11.80
2018,08,13,01,58,11.80
2018,08,13,01,59,11.80
2018,08,13,02,00,11.80
2018,08,13,02,01,11.80
2018,08,13,02,02,11.80
2018,08,13,02,03,11.80
2018,08,13,02,04,11.80
2018,08,13,02,05,11.80
2018,08,13,02,06,11.80
2018,08,13,02,07,11.80
2018,08,13,02,08,11.80
2018,08,13,02,09,11.70
2018,08,13,02,10,11.70
2018,08,13,02,11,11.70
2018,08,13,02,12,11.70
2018,08,13,02,13,11.70
2018,08,13,02,14,11.70
2018,08,13,02,15,11.70
2018,08,13,02,16,11.70
2018,08,13,02,17,11.70
2018,08,13,02,18,11.70
2018,08,13,02,19,11.70
2018,08,13,02,20,11.70
2018,08,13,02,21,11.70
2018,08,13,02,22,11.70
2018,08,13,02,23,11.70
2018,08,13,02,24,11.70
2018,08,13,02,25,11.70
2018,08,13,02,26,11.70
2018,08,13,02,27,11.70
2018,08,13,02,28,11.70
2018,08,13,02,29,11.70
2018,08,13,02,30,11.70
2018,08,13,02,31,11.70
2018,08,13,02,32,11.70
2018,08,13,02,33,11.60
2018,08,13,02,34,11.60
2018,08,13,02,35,11.60
2018,08,13,02,36,11.60
2018,08,13,02,37,11.60
2018,08,13,02,38,11.60
2018,08,13,02,39,11.60
2018,08,13,02,40,11.60
2018,08,13,02,41,11.60
2018,08,13,02,42,11.60
2018,08,13,02,43,11.60
2018,08,13,02,44,11.60
2018,08,13,02,45,11.60
2018,08,13,02,46,11.60
2018,08,13,02,47,11.60
2018,08,13,02,48,11.60
2018,08,13,02,49,11.60
2018,08,13,02,50,11.60
2018,08,13,02,51,11.60
2018,08,13,02,52,11.60
2018,08,13,02,53,11.60
2018,08,13,02,54,11.60
2018,08,13,02,55,11.60
2018,08,13,02,56,11.60
2018,08,13,02,57,11.60
2018,08,13,02,58,11.60
2018,08,13,02,59,11.50
2018,08,13,03,00,11.50
2018,08,13,03,01,11.50
2018,08,13,03,02,11.50
2018,08,13,03,03,11.50
2018,08,13,03,04,11.50
2018,08,13,03,05,11.50
2018,08,13,03,06,11.50
2018,08,13,03,07,11.50
2018,08,13,03,08,11.50
2018,08,13,03,09,11.50
2018,08,13,03,10,11.40
2018,08,13,03,11,11.40
2018,08,13,03,12,11.40
2018,08,13,03,13,11.40
2018,08,13,03,14,11.40
2018,08,13,03,15,11.40
2018,08,13,03,16,11.40
2018,08,13,03,17,11.40
2018,08,13,03,18,11.40
2018,08,13,03,19,11.40
2018,08,13,03,20,11.40
2018,08,13,03,21,11.40
2018,08,13,03,22,11.40
2018,08,13,03,23,11.40
2018,08,13,03,24,11.30
2018,08,13,03,25,11.30
2018,08,13,03,26,11.30
2018,08,13,03,27,11.30
2018,08,13,03,28,11.30
2018,08,13,03,29,11.30
2018,08,13,03,30,11.30
2018,08,13,03,31,11.30
2018,08,13,03,32,11.30
2018,08,13,03,33,11.30
2018,08,13,03,34,11.30
2018,08,13,03,35,11.30
2018,08,13,03,36,11.30
2018,08,13,03,37,11.30
2018,08,13,03,38,11.30
2018,08,13,03,39,11.20
2018,08,13,03,40,11.20
2018,08,13,03,41,11.20
2018,08,13,03,42,11.20
2018,08,13,03,43,11.20
2018,08,13,03,44,11.20
2018,08,13,03,45,11.20
2018,08,13,03,46,11.20
2018,08,13,03,47,11.20
2018,08,13,03,48,11.20
2018,08,13,03,49,11.20
2018,08,13,03,50,11.20
2018,08,13,03,51,11.20
2018,08,13,03,52,11.20
2018,08,13,03,53,11.20
2018,08,13,03,54,11.20
2018,08,13,03,55,11.20
2018,08,13,03,56,11.20
2018,08,13,03,57,11.20
2018,08,13,03,58,11.20
2018,08,13,03,59,11.20
2018,08,13,04,00,11.20
2018,08,13,04,01,11.20
2018,08,13,04,02,11.20
2018,08,13,04,03,11.20
2018,08,13,04,04,11.10
2018,08,13,04,05,11.10
2018,08,13,04,06,11.10
2018,08,13,04,07,11.10
2018,08,13,04,08,11.10
2018,08,13,04,09,11.10
2018,08,13,04,10,11.10
2018,08,13,04,11,11.10
2018,08,13,04,12,11.10
2018,08,13,04,13,11.10
2018,08,13,04,14,11.10
2018,08,13,04,15,11.10
2018,08,13,04,16,11.10
2018,08,13,04,17,11.10
2018,08,13,04,18,11.10
2018,08,13,04,19,11.10
2018,08,13,04,20,11.10
2018,08,13,04,21,11.10
2018,08,13,04,22,11.10
2018,08,13,04,23,11.10
2018,08,13,04,24,11.10
2018,08,13,04,25,11.10
2018,08,13,04,26,11.10
2018,08,13,04,27,11.10
2018,08,13,04,28,11.10
2018,08,13,04,29,11.10
2018,08,13,04,30,11.10
2018,08,13,04,31,11.10
2018,08,13,04,32,11.10
2018,08,13,04,33,11.10
2018,08,13,04,34,11.10
2018,08,13,04,35,11.20
2018,08,13,04,36,11.10
2018,08,13,04,37,11.10
2018,08,13,04,38,11.10
2018,08,13,04,39,11.10
2018,08,13,04,40,11.10
2018,08,13,04,41,11.10
2018,08,13,04,42,11.10
2018,08,13,04,43,11.10
2018,08,13,04,44,11.10
2018,08,13,04,45,11.10
2018,08,13,04,46,11.10
2018,08,13,04,47,11.10
2018,08,13,04,48,11.10
2018,08,13,04,49,11.10
2018,08,13,04,50,11.10
2018,08,13,04,51,11.10
2018,08,13,04,52,11.10
2018,08,13,04,53,11.10
2018,08,13,04,54,11.10
2018,08,13,04,55,11.10
2018,08,13,04,56,11.10
2018,08,13,04,57,11.10
2018,08,13,04,58,11.10
2018,08,13,04,59,11.10
2018,08,13,05,00,11.10
2018,08,13,05,01,11.10
2018,08,13,05,02,11.10
2018,08,13,05,03,11.00
2018,08,13,05,04,11.00
2018,08,13,05,05,11.00
2018,08,13,05,06,11.00
2018,08,13,05,07,11.00
2018,08,13,05,08,11.00
2018,08,13,05,09,11.00
2018,08,13,05,10,11.00
2018,08,13,05,11,11.00
2018,08,13,05,12,11.00
2018,08,13,05,13,11.00
2018,08,13,05,14,11.00
2018,08,13,05,15,11.00
2018,08,13,05,16,11.00
2018,08,13,05,17,11.00
2018,08,13,05,18,11.00
2018,08,13,05,19,11.00
2018,08,13,05,20,11.00
2018,08,13,05,21,11.00
2018,08,13,05,22,11.00
2018,08,13,05,23,11.00
2018,08,13,05,24,11.00
2018,08,13,05,25,11.00
2018,08,13,05,26,11.10
2018,08,13,05,27,11.10
2018,08,13,05,28,11.10
2018,08,13,05,29,11.10
2018,08,13,05,30,11.10
2018,08,13,05,31,11.10
2018,08,13,05,32,11.10
2018,08,13,05,33,11.10
2018,08,13,05,34,11.10
2018,08,13,05,35,11.10
2018,08,13,05,36,11.10
2018,08,13,05,37,11.10
2018,08,13,05,38,11.10
2018,08,13,05,39,11.10
2018,08,13,05,40,11.10
2018,08,13,05,41,11.10
2018,08,13,05,42,11.10
2018,08,13,05,43,11.10
2018,08,13,05,44,11.10
2018,08,13,05,45,11.10
2018,08,13,05,46,11.10
2018,08,13,05,47,11.10
2018,08,13,05,48,11.10
2018,08,13,05,49,11.10
2018,08,13,05,50,11.10
2018,08,13,05,51,11.10
2018,08,13,05,52,11.10
2018,08,13,05,53,11.10
2018,08,13,05,54,11.10
2018,08,13,05,55,11.10
2018,08,13,05,56,11.10
2018,08,13,05,57,11.10
2018,08,13,05,58,11.10
2018,08,13,05,59,11.10
2018,08,13,06,00,11.10
2018,08,13,06,01,11.10
2018,08,13,06,02,11.10
2018,08,13,06,03,11.10
2018,08,13,06,04,11.10
2018,08,13,06,05,11.10
2018,08,13,06,06,11.10
2018,08,13,06,07,11.10
2018,08,13,06,08,11.10
2018,08,13,06,09,11.10
2018,08,13,06,10,11.10
2018,08,13,06,11,11.10
2018,08,13,06,12,11.10
2018,08,13,06,13,11.10
2018,08,13,06,14,11.10
2018,08,13,06,15,11.10
2018,08,13,06,16,11.10
2018,08,13,06,17,11.10
2018,08,13,06,18,11.10
2018,08,13,06,19,11.10
2018,08,13,06,20,11.10
2018,08,13,06,21,11.10
2018,08,13,06,22,11.10
2018,08,13,06,23,11.10
2018,08,13,06,24,11.10
2018,08,13,06,25,11.10
2018,08,13,06,26,11.10
2018,08,13,06,27,11.10
2018,08,13,06,28,11.10
2018,08,13,06,29,11.10
2018,08,13,06,30,11.10
2018,08,13,06,31,11.10
2018,08,13,06,32,11.10
2018,08,13,06,33,11.10
2018,08,13,06,34,11.10
2018,08,13,06,35,11.10
2018,08,13,06,36,11.10
2018,08,13,06,37,11.10
2018,08,13,06,38,11.10
2018,08,13,06,39,11.20
2018,08,13,06,40,11.20
2018,08,13,06,41,11.20
2018,08,13,06,42,11.20
2018,08,13,06,43,11.20
2018,08,13,06,44,11.20
2018,08,13,06,45,11.20
2018,08,13,06,46,11.20
2018,08,13,06,47,11.20
2018,08,13,06,48,11.20
2018,08,13,06,49,11.20
2018,08,13,06,50,11.20
2018,08,13,06,51,11.20
2018,08,13,06,52,11.20
2018,08,13,06,53,11.20
2018,08,13,06,54,11.20
2018,08,13,06,55,11.30
2018,08,13,06,56,11.30
2018,08,13,06,57,11.30
2018,08,13,06,58,11.30
2018,08,13,06,59,11.30
2018,08,13,07,00,11.30
2018,08,13,07,01,11.30
2018,08,13,07,02,11.30
2018,08,13,07,03,11.40
2018,08,13,07,04,11.40
2018,08,13,07,05,11.40
2018,08,13,07,06,11.40
2018,08,13,07,07,11.40
2018,08,13,07,08,11.40
2018,08,13,07,09,11.40
2018,08,13,07,10,11.50
2018,08,13,07,11,11.50
2018,08,13,07,12,11.50
2018,08,13,07,13,11.50
2018,08,13,07,14,11.60
2018,08,13,07,15,11.60
2018,08,13,07,16,11.60
2018,08,13,07,17,11.60
2018,08,13,07,18,11.60
2018,08,13,07,19,11.60
2018,08,13,07,20,11.70
2018,08,13,07,21,11.70
2018,08,13,07,22,11.70
2018,08,13,07,23,11.70
2018,08,13,07,24,11.80
2018,08,13,07,25,11.80
2018,08,13,07,26,11.80
2018,08,13,07,27,11.80
2018,08,13,07,28,11.90
2018,08,13,07,29,11.90
2018,08,13,07,30,11.90
2018,08,13,07,31,11.90
2018,08,13,07,32,11.90
2018,08,13,07,33,12.00
2018,08,13,07,34,12.00
2018,08,13,07,35,12.10
2018,08,13,07,36,12.10
2018,08,13,07,37,12.10
2018,08,13,07,38,12.10
2018,08,13,07,39,12.10
2018,08,13,07,40,12.20
2018,08,13,07,41,12.20
2018,08,13,07,42,12.20
2018,08,13,07,43,12.20
2018,08,13,07,44,12.30
2018,08,13,07,45,12.30
2018,08,13,07,46,12.30
2018,08,13,07,47,12.40
2018,08,13,07,48,12.40
2018,08,13,07,49,12.40
2018,08,13,07,50,12.50
2018,08,13,07,51,12.50
2018,08,13,07,52,12.60
2018,08,13,07,53,12.60
2018,08,13,07,54,12.60
2018,08,13,07,55,12.70
2018,08,13,07,56,12.70
2018,08,13,07,57,12.70
2018,08,13,07,58,12.80
2018,08,13,07,59,12.80
2018,08,13,08,00,12.90
2018,08,13,08,01,12.90
2018,08,13,08,02,13.00
2018,08,13,08,03,13.10
2018,08,13,08,04,13.10
2018,08,13,08,05,13.20
2018,08,13,08,06,13.20
2018,08,13,08,07,13.30
2018,08,13,08,08,13.30
2018,08,13,08,09,13.40
2018,08,13,08,10,13.50
2018,08,13,08,11,13.50
2018,08,13,08,12,13.60
2018,08,13,08,13,13.70
2018,08,13,08,14,13.70
2018,08,13,08,15,13.80
2018,08,13,08,16,13.90
2018,08,13,08,17,13.90
2018,08,13,08,18,14.00
2018,08,13,08,19,14.10
2018,08,13,08,20,14.20
2018,08,13,08,21,14.30
2018,08,13,08,22,14.30
2018,08,13,08,23,14.30
2018,08,13,08,24,14.40
2018,08,13,08,25,14.50
2018,08,13,08,26,14.60
2018,08,13,08,27,14.60
2018,08,13,08,28,14.70
2018,08,13,08,29,14.70
2018,08,13,08,30,14.80
2018,08,13,08,31,14.90
2018,08,13,08,32,15.00
2018,08,13,08,33,15.00
2018,08,13,08,34,15.10
2018,08,13,08,35,15.20
2018,08,13,08,36,15.20
2018,08,13,08,37,15.30
2018,08,13,08,38,15.40
2018,08,13,08,39,15.50
2018,08,13,08,40,15.50
2018,08,13,08,41,15.60
2018,08,13,08,42,15.70
2018,08,13,08,43,15.80
2018,08,13,08,44,15.80
2018,08,13,08,45,15.90
2018,08,13,08,46,16.00
2018,08,13,08,47,16.10
2018,08,13,08,48,16.20
2018,08,13,08,49,16.20
2018,08,13,08,50,16.30
2018,08,13,08,51,16.40
2018,08,13,08,52,16.40
2018,08,13,08,53,16.50
2018,08,13,08,54,16.50
2018,08,13,08,55,16.60
2018,08,13,08,56,16.60
2018,08,13,08,57,16.70
2018,08,13,08,58,16.70
2018,08,13,08,59,16.80
2018,08,13,09,00,16.80
2018,08,13,09,01,16.90
2018,08,13,09,02,17.00
2018,08,13,09,03,17.10
2018,08,13,09,04,17.10
2018,08,13,09,05,17.20
2018,08,13,09,06,17.20
2018,08,13,09,07,17.30
2018,08,13,09,08,17.30
2018,08,13,09,09,17.40
2018,08,13,09,10,17.40
2018,08,13,09,11,17.50
2018,08,13,09,12,17.50
2018,08,13,09,13,17.60
2018,08,13,09,14,17.70
2018,08,13,09,15,17.70
2018,08,13,09,16,17.80
2018,08,13,09,17,17.80
2018,08,13,09,18,17.90
2018,08,13,09,19,18.00
2018,08,13,09,20,18.10
2018,08,13,09,21,18.20
2018,08,13,09,22,18.20
2018,08,13,09,23,18.30
2018,08,13,09,24,18.40
2018,08,13,09,25,18.50
2018,08,13,09,26,18.60
2018,08,13,09,27,18.70
2018,08,13,09,28,18.80
2018,08,13,09,29,18.90
2018,08,13,09,30,19.00
2018,08,13,09,31,19.10
2018,08,13,09,32,19.20
2018,08,13,09,33,19.30
2018,08,13,09,34,19.40
2018,08,13,09,35,19.50
2018,08,13,09,36,19.50
2018,08,13,09,37,19.60
2018,08,13,09,38,19.70
2018,08,13,09,39,19.70
2018,08,13,09,40,19.80
2018,08,13,09,41,19.80
2018,08,13,09,42,19.80
2018,08,13,09,43,19.80
2018,08,13,09,44,19.80
2018,08,13,09,45,19.80
2018,08,13,09,46,19.80
2018,08,13,09,47,19.80
2018,08,13,09,48,19.80
2018,08,13,09,49,19.80
2018,08,13,09,50,19.80
2018,08,13,09,51,19.90
2018,08,13,09,52,19.90
2018,08,13,09,53,20.00
2018,08,13,09,54,20.10
2018,08,13,09,55,20.10
2018,08,13,09,56,20.20
2018,08,13,09,57,20.20
2018,08,13,09,58,20.30
2018,08,13,09,59,20.30
2018,08,13,10,00,20.30
2018,08,13,10,01,20.30
2018,08,13,10,02,20.40
2018,08,13,10,03,20.40
2018,08,13,10,04,20.40
2018,08,13,10,05,20.40
2018,08,13,10,06,20.40
2018,08,13,10,07,20.40
2018,08,13,10,08,20.40
2018,08,13,10,09,20.40
2018,08,13,10,10,20.40
2018,08,13,10,11,20.40
2018,08,13,10,12,20.40
2018,08,13,10,13,20.30
2018,08,13,10,14,20.30
2018,08,13,10,15,20.30
2018,08,13,10,16,20.30
2018,08,13,10,17,20.30
2018,08,13,10,18,20.30
2018,08,13,10,19,20.30
2018,08,13,10,20,20.20
2018,08,13,10,21,20.20
2018,08,13,10,22,20.20
2018,08,13,10,23,20.30
2018,08,13,10,24,20.30
2018,08,13,10,25,20.30
2018,08,13,10,26,20.30
2018,08,13,10,27,20.40
2018,08,13,10,28,20.40
2018,08,13,10,29,20.50
2018,08,13,10,30,20.50
2018,08,13,10,31,20.60
2018,08,13,10,32,20.60
2018,08,13,10,33,20.70
2018,08,13,10,34,20.70
2018,08,13,10,35,20.70
2018,08,13,10,36,20.80
2018,08,13,10,37,20.80
2018,08,13,10,38,20.80
2018,08,13,10,39,20.90
2018,08,13,10,40,21.00
2018,08,13,10,41,21.10
2018,08,13,10,42,21.10
2018,08,13,10,43,21.20
2018,08,13,10,44,21.20
2018,08,13,10,45,21.20
2018,08,13,10,46,21.30
2018,08,13,10,47,21.40
2018,08,13,10,48,21.40
2018,08,13,10,49,21.40
2018,08,13,10,50,21.50
2018,08,13,10,51,21.50
2018,08,13,10,52,21.60
2018,08,13,10,53,21.60
2018,08,13,10,54,21.60
2018,08,13,10,55,21.60
2018,08,13,10,56,21.60
2018,08,13,10,57,21.60
2018,08,13,10,58,21.60
2018,08,13,10,59,21.70
2018,08,13,11,00,21.70
2018,08,13,11,01,21.70
2018,08,13,11,02,21.70
2018,08,13,11,03,21.70
2018,08,13,11,04,21.60
2018,08,13,11,05,21.60
2018,08,13,11,06,21.60
2018,08,13,11,07,21.60
2018,08,13,11,08,21.60
2018,08,13,11,09,21.70
2018,08,13,11,10,21.80
2018,08,13,11,11,21.80
2018,08,13,11,12,21.90
2018,08,13,11,13,22.00
2018,08,13,11,14,22.00
2018,08,13,11,15,22.10
2018,08,13,11,16,22.10
2018,08,13,11,17,22.10
2018,08,13,11,18,22.20
2018,08,13,11,19,22.20
2018,08,13,11,20,22.20
2018,08,13,11,21,22.20
2018,08,13,11,22,22.20
2018,08,13,11,23,22.10
2018,08,13,11,24,22.10
2018,08,13,11,25,22.10
2018,08,13,11,26,22.10
2018,08,13,11,27,22.10
2018,08,13,11,28,22.20
2018,08,13,11,29,22.30
2018,08,13,11,30,22.30
2018,08,13,11,31,22.30
2018,08,13,11,32,22.40
2018,08,13,11,33,22.50
2018,08,13,11,34,22.60
2018,08,13,11,35,22.50
2018,08,13,11,36,22.50
2018,08,13,11,37,22.50
2018,08,13,11,38,22.50
2018,08,13,11,39,22.50
2018,08,13,11,40,22.50
2018,08,13,11,41,22.60
2018,08,13,11,42,22.60
2018,08,13,11,43,22.70
2018,08,13,11,44,22.70
2018,08,13,11,45,22.70
2018,08,13,11,46,22.70
2018,08,13,11,47,22.70
2018,08,13,11,48,22.70
2018,08,13,11,49,22.70
2018,08,13,11,50,22.70
2018,08,13,11,51,22.70
2018,08,13,11,52,22.70
2018,08,13,11,53,22.80
2018,08,13,11,54,22.80
2018,08,13,11,55,22.90
2018,08,13,11,56,22.90
2018,08,13,11,57,23.00
2018,08,13,11,58,23.10
2018,08,13,11,59,23.10
2018,08,13,12,00,23.20
2018,08,13,12,01,23.20
2018,08,13,12,02,23.20
2018,08,13,12,03,23.20
2018,08,13,12,04,23.20
2018,08,13,12,05,23.20
2018,08,13,12,06,23.20
2018,08,13,12,07,23.20
2018,08,13,12,08,23.20
2018,08,13,12,09,23.20
2018,08,13,12,10,23.20
2018,08,13,12,11,23.20
2018,08,13,12,12,23.20
2018,08,13,12,13,23.20
2018,08,13,12,14,23.20
2018,08,13,12,15,23.20
2018,08,13,12,16,23.20
2018,08,13,12,17,23.20
2018,08,13,12,18,23.10
2018,08,13,12,19,23.10
2018,08,13,12,20,23.10
2018,08,13,12,21,23.00
2018,08,13,12,22,23.00
2018,08,13,12,23,23.00
2018,08,13,12,24,23.10
2018,08,13,12,25,23.10
2018,08,13,12,26,23.10
2018,08,13,12,27,23.10
2018,08,13,12,28,23.10
2018,08,13,12,29,23.20
2018,08,13,12,30,23.20
2018,08,13,12,31,23.10
2018,08,13,12,32,23.20
2018,08,13,12,33,23.20
2018,08,13,12,34,23.10
2018,08,13,12,35,23.00
2018,08,13,12,36,23.00
2018,08,13,12,37,23.00
2018,08,13,12,38,23.00
2018,08,13,12,39,23.00
2018,08,13,12,40,23.00
2018,08,13,12,41,23.10
2018,08,13,12,42,23.10
2018,08,13,12,43,23.20
2018,08,13,12,44,23.30
2018,08,13,12,45,23.30
2018,08,13,12,46,23.40
2018,08,13,12,47,23.40
2018,08,13,12,48,23.50
2018,08,13,12,49,23.50
2018,08,13,12,50,23.60
2018,08,13,12,51,23.70
2018,08,13,12,52,23.70
2018,08,13,12,53,23.70
2018,08,13,12,54,23.70
2018,08,13,12,55,23.70
2018,08,13,12,56,23.70
2018,08,13,12,57,23.70
2018,08,13,12,58,23.80
2018,08,13,12,59,23.80
2018,08,13,13,00,23.80
2018,08,13,13,01,23.90
2018,08,13,13,02,24.00
2018,08,13,13,03,24.00
2018,08,13,13,04,24.00
2018,08,13,13,05,24.00
2018,08,13,13,06,24.00
2018,08,13,13,07,24.00
2018,08,13,13,08,24.00
2018,08,13,13,09,24.00
2018,08,13,13,10,24.10
2018,08,13,13,11,24.20
2018,08,13,13,12,24.30
2018,08,13,13,13,24.40
2018,08,13,13,14,24.30
2018,08,13,13,15,24.30
2018,08,13,13,16,24.30
2018,08,13,13,17,24.30
2018,08,13,13,18,24.30
2018,08,13,13,19,24.30
2018,08,13,13,20,24.40
2018,08,13,13,21,24.40
2018,08,13,13,22,24.40
2018,08,13,13,23,24.40
2018,08,13,13,24,24.40
2018,08,13,13,25,24.40
2018,08,13,13,26,24.40
2018,08,13,13,27,24.50
2018,08,13,13,28,24.60
2018,08,13,13,29,24.60
2018,08,13,13,30,24.60
2018,08,13,13,31,24.50
2018,08,13,13,32,24.50
2018,08,13,13,33,24.40
2018,08,13,13,34,24.40
2018,08,13,13,35,24.40
2018,08,13,13,36,24.40
2018,08,13,13,37,24.40
2018,08,13,13,38,24.40
2018,08,13,13,39,24.40
2018,08,13,13,40,24.40
2018,08,13,13,41,24.50
2018,08,13,13,42,24.50
2018,08,13,13,43,24.60
2018,08,13,13,44,24.70
2018,08,13,13,45,24.80
2018,08,13,13,46,24.90
2018,08,13,13,47,24.90
2018,08,13,13,48,25.00
2018,08,13,13,49,25.00
2018,08,13,13,50,25.10
2018,08,13,13,51,25.10
2018,08,13,13,52,25.10
2018,08,13,13,53,25.20
2018,08,13,13,54,25.20
2018,08,13,13,55,25.20
2018,08,13,13,56,25.30
2018,08,13,13,57,25.30
2018,08,13,13,58,25.30
2018,08,13,13,59,25.30
2018,08,13,14,00,25.30
2018,08,13,14,01,25.40
2018,08,13,14,02,25.40
2018,08,13,14,03,25.40
2018,08,13,14,04,25.50
2018,08,13,14,05,25.50
2018,08,13,14,06,25.60
2018,08,13,14,07,25.60
2018,08,13,14,08,25.60
2018,08,13,14,09,25.60
2018,08,13,14,10,25.50
2018,08,13,14,11,25.50
2018,08,13,14,12,25.50
2018,08,13,14,13,25.60
2018,08,13,14,14,25.50
2018,08,13,14,15,25.50
2018,08,13,14,16,25.40
2018,08,13,14,17,25.40
2018,08,13,14,18,25.40
2018,08,13,14,19,25.40
2018,08,13,14,20,25.40
2018,08,13,14,21,25.40
2018,08,13,14,22,25.50
2018,08,13,14,23,25.50
2018,08,13,14,24,25.60
2018,08,13,14,25,25.60
2018,08,13,14,26,25.60
2018,08,13,14,27,25.60
2018,08,13,14,28,25.60
2018,08,13,14,29,25.50
2018,08,13,14,30,25.60
2018,08,13,14,31,25.60
2018,08,13,14,32,25.60
2018,08,13,14,33,25.70
2018,08,13,14,34,25.60
2018,08,13,14,35,25.60
2018,08,13,14,36,25.50
2018,08,13,14,37,25.40
2018,08,13,14,38,25.40
2018,08,13,14,39,25.30
2018,08,13,14,40,25.30
2018,08,13,14,41,25.30
2018,08,13,14,42,25.40
2018,08,13,14,43,25.50
2018,08,13,14,44,25.60
2018,08,13,14,45,25.60
2018,08,13,14,46,25.70
2018,08,13,14,47,25.80
2018,08,13,14,48,25.80
2018,08,13,14,49,25.90
2018,08,13,14,50,25.90
2018,08,13,14,51,25.90
2018,08,13,14,52,25.90
2018,08,13,14,53,25.90
2018,08,13,14,54,25.90
2018,08,13,14,55,25.90
2018,08,13,14,56,26.00
2018,08,13,14,57,26.00
2018,08,13,14,58,26.00
2018,08,13,14,59,26.00
2018,08,13,15,00,26.10
2018,08,13,15,01,26.10
2018,08,13,15,02,26.30
2018,08,13,15,03,26.30
2018,08,13,15,04,26.20
2018,08,13,15,05,26.20
2018,08,13,15,06,26.30
2018,08,13,15,07,26.30
2018,08,13,15,08,26.30
2018,08,13,15,09,26.40
2018,08,13,15,10,26.40
2018,08,13,15,11,26.50
2018,08,13,15,12,26.50
2018,08,13,15,13,26.50
2018,08,13,15,14,26.60
2018,08,13,15,15,26.70
2018,08,13,15,16,26.70
2018,08,13,15,17,26.80
2018,08,13,15,18,26.80
2018,08,13,15,19,26.80
2018,08,13,15,20,26.80
2018,08,13,15,21,26.70
2018,08,13,15,22,26.60
2018,08,13,15,23,26.60
2018,08,13,15,24,26.60
2018,08,13,15,25,26.50
2018,08,13,15,26,26.50
2018,08,13,15,27,26.50
2018,08,13,15,28,26.50
2018,08,13,15,29,26.60
2018,08,13,15,30,26.60
2018,08,13,15,31,26.60
2018,08,13,15,32,26.70
2018,08,13,15,33,26.70
2018,08,13,15,34,26.80
2018,08,13,15,35,26.80
2018,08,13,15,36,26.80
2018,08,13,15,37,26.90
2018,08,13,15,38,26.90
2018,08,13,15,39,26.80
2018,08,13,15,40,26.80
2018,08,13,15,41,26.80
2018,08,13,15,42,26.80
2018,08,13,15,43,26.80
2018,08,13,15,44,26.70
2018,08,13,15,45,26.70
2018,08,13,15,46,26.70
2018,08,13,15,47,26.70
2018,08,13,15,48,26.80
2018,08,13,15,49,26.80
2018,08,13,15,50,26.80
2018,08,13,15,51,26.90
2018,08,13,15,52,27.00
2018,08,13,15,53,27.00
2018,08,13,15,54,26.90
2018,08,13,15,55,26.90
2018,08,13,15,56,26.80
2018,08,13,15,57,26.80
2018,08,13,15,58,26.80
2018,08,13,15,59,26.80
2018,08,13,16,00,26.80
2018,08,13,16,01,26.80
2018,08,13,16,02,26.80
2018,08,13,16,03,26.80
2018,08,13,16,04,26.80
2018,08,13,16,05,26.80
2018,08,13,16,06,26.90
2018,08,13,16,07,27.00
2018,08,13,16,08,27.00
2018,08,13,16,09,27.10
2018,08,13,16,10,27.10
2018,08,13,16,11,27.10
2018,08,13,16,12,27.10
2018,08,13,16,13,27.10
2018,08,13,16,14,27.20
2018,08,13,16,15,27.20
2018,08,13,16,16,27.20
2018,08,13,16,17,27.20
2018,08,13,16,18,27.20
2018,08,13,16,19,27.20
2018,08,13,16,20,27.10
2018,08,13,16,21,27.10
2018,08,13,16,22,27.10
2018,08,13,16,23,27.10
2018,08,13,16,24,27.10
2018,08,13,16,25,27.10
2018,08,13,16,26,27.10
2018,08,13,16,27,27.10
2018,08,13,16,28,27.10
2018,08,13,16,29,27.10
2018,08,13,16,30,27.10
2018,08,13,16,31,27.20
2018,08,13,16,32,27.20
2018,08,13,16,33,27.30
2018,08,13,16,34,27.20
2018,08,13,16,35,27.20
2018,08,13,16,36,27.10
2018,08,13,16,37,27.10
2018,08,13,16,38,27.00
2018,08,13,16,39,26.90
2018,08,13,16,40,26.90
2018,08,13,16,41,26.90
2018,08,13,16,42,26.80
2018,08,13,16,43,26.80
2018,08,13,16,44,26.80
2018,08,13,16,45,26.90
2018,08,13,16,46,26.90
2018,08,13,16,47,27.00
2018,08,13,16,48,27.00
2018,08,13,16,49,27.10
2018,08,13,16,50,27.10
2018,08,13,16,51,27.10
2018,08,13,16,52,27.10
2018,08,13,16,53,27.10
2018,08,13,16,54,27.10
2018,08,13,16,55,27.10
2018,08,13,16,56,27.10
2018,08,13,16,57,27.10
2018,08,13,16,58,27.00
2018,08,13,16,59,26.90
2018,08,13,17,00,26.90
2018,08,13,17,01,26.80
2018,08,13,17,02,26.80
2018,08,13,17,03,26.80
2018,08,13,17,04,26.80
2018,08,13,17,05,26.70
2018,08,13,17,06,26.70
2018,08,13,17,07,26.70
2018,08,13,17,08,26.70
2018,08,13,17,09,26.70
2018,08,13,17,10,26.70
2018,08,13,17,11,26.70
2018,08,13,17,12,26.60
2018,08,13,17,13,26.50
2018,08,13,17,14,26.50
2018,08,13,17,15,26.40
2018,08,13,17,16,26.30
2018,08,13,17,17,26.30
2018,08,13,17,18,26.20
2018,08,13,17,19,26.10